Regional Weather Roundup
Issued by NWS Charleston, SC

Home | Current Version | Previous Version | Text Only | Print | Product List | Glossary On
Versions: 1 2 3 4 5 6 7 8 9 10 11 12 13 14 15 16 17 18 19 20 21 22 23 24 25 26 27 28 29 30 31 32 33 34 35 36 37 38 39 40 41 42 43 44 45 46 47 48 49 50
000
ASUS42 KCHS 300827
RWRCHS

REGIONAL WEATHER ROUNDUP
NATIONAL WEATHER SERVICE CHARLESTON SC
400 AM EDT SAT MAY 30 2015

NOTE: "FAIR" INDICATES FEW OR NO CLOUDS BELOW 12,000 FEET WITH NO
SIGNIFICANT WEATHER AND/OR OBSTRUCTIONS TO VISIBILITY.

NOT ALL STATIONS ARE QUALITY CONTROLLED BY THE NATIONAL
WEATHER SERVICE. USE DATA WITH CAUTION...ESPECIALLY
DEWPOINT OBSERVATIONS.

SCZ027-030-031-034>040-042>050-300900-
...SOUTHEAST SOUTH CAROLINA...

CITY           SKY/WX    TMP DP  RH WIND       PRES   REMARKS
N CHARLESTON   PTCLDY    69  67  93 NE5       30.13S
WATERFRONT PAR   N/A     76  71  84 E8        30.10F
MOUNT PLEASANT LGT RAIN  68  66  94 CALM      30.13S
JOHNS ISLAND   SUNNY     73  70  88 CALM      30.13S
PINOPOLIS      NOT AVBL
MONCKS CORNER  FAIR      66  64  94 CALM      30.14S
SUMMERVILLE    FOG       64  64 100 CALM      30.15S VSB 1
BEAUFORT MCAS  CLEAR     70  68  93 N5        30.13S
BEAUFORT ARPT  FAIR      70  70 100 CALM      30.12S
HILTON HEAD IS MOCLDY    75  72  88 NE5       30.12F
WALTERBORO     SUNNY     63  63 100 CALM      30.15S
ALLENDALE      FAIR      68  66  94 CALM      30.14S

...SOUTHERN MIDLANDS AND PEE DEE...

CITY           SKY/WX    TMP DP  RH WIND       PRES   REMARKS
GEORGETOWN     NOT AVBL
KINGSTREE      NOT AVBL
ORANGEBURG     CLEAR     66  64  93 CALM      30.15F
BARNWELL       FAIR      66  64  94 CALM      30.16S
AIKEN          FAIR      63  61  94 CALM      30.19S
MANNING        FAIR      63  59  88 CALM      30.15S
COLUMBIA       PTCLDY    67  62  84 CALM      30.15S
SUMTER         CLEAR     67  65  94 NE3       30.14F
FLORENCE       CLEAR     67  66  97 CALM      30.16S
MYRTLE BEACH   PTCLDY    73  64  73 SE8       30.17S
N MYRTLE BEACH PTCLDY    75  66  73 SE5       30.15S

$$

GAZ063-065-086>088-099>101-113>116-118-119-134>141-150-300900-
...SOUTHEAST GEORGIA...

CITY           SKY/WX    TMP DP  RH WIND       PRES   REMARKS
SAVANNAH ARPT  PTCLDY    67  66  97 N3        30.12S
HUNTER AAF     PTCLDY    73  71  93 NE2       30.09F
FORT STEWART   CLEAR     66  64  93 CALM      30.10S
STATESBORO     CLEAR     65  32  29 CALM      30.14R HAZE
SYLVANIA       SUNNY     67  67 100 CALM      30.15R
CLAXTON        FAIR      63  63 100 CALM      30.13S

...CSRA...CENTRAL AND FAR SOUTHEAST GEORGIA...

CITY           SKY/WX    TMP DP  RH WIND       PRES   REMARKS
THOMSON        PTCLDY    67  67  99 CALM      30.19F
AUGUSTA-BUSH   CLEAR     64  63  96 CALM      30.14F
AUGUSTA-DANIEL CLEAR     71  65  81 SE3       30.16S
SWAINSBORO     FAIR     N/A N/A N/A E3        30.14S
VIDALIA        CLEAR     70  68  94 CALM      30.13S
EASTMAN        FAIR      66  66 100 CALM      30.15S FOG
HAZLEHURST     PTSUNNY   71  71  97 CALM      30.12R
ALMA           PTCLDY    67  65  93 CALM      30.11F
WAYCROSS       CLEAR     68  68  99 CALM      30.10S
JESUP          FAIR      70  68  94 CALM      30.11S
BAXLEY         FAIR      70  68  94 CALM      30.12R
BRUNSWICK        N/A     64  63  94 CALM      30.11S VSB 1/2
SAINT SIMONS   NOT AVBL

$$

SCZ027-028-034-036>038-045-046-048>050-GAZ119-141-300900-
...LAKE AND SUPPLEMENTAL COASTAL OBSERVATIONS...

STATION/POSITION TIME  TEMP    WIND        PRES    WAVE   SWELL
                       AIR SEA DIR/SP/G            HT/PER HT/PER/DIR
                 (UTC) (F)     (DEG/KT/KT) (MB)    (FT/S) (FT/S/D)
UPR LAKE MARION  NOT AVBL
WINYAH BAY       0700   75     110/  6     1020.0S
LAKE MURRAY      0700   73     150/  8/ 10 1020.7F
ACE BASIN NERRS  NOT AVBL
FORT PULASKI     0800   77 80   70/ 12/ 14 1020.1F
SAPELO ISLAND    0800   69      20/  3     1019.0F

$$

ANZ835-935-AMZ111-154-330-350-352-354-370-450-454-472-300900-
...C-MAN AND BUOY OBSERVATIONS...

STATION/POSITION TIME  TEMP    WIND        PRES    WAVE   SWELL
                       AIR SEA DIR/SP/G            HT/PER HT/PER/DIR
                 (UTC) (F)     (DEG/KT/KT) (MB)    (FT/S) (FT/S/D)
BUOY 41004       0750   77 78  100/ 12/ 16 1019.4F   5/ 8   3/ 8
BUOY 41008       0750   76 78   CALM  /  2 1019.3F   3/ 9   3/100/ 9
FOLLY BEACH CMAN 0800   76      90/ 11/ 11 1020.2F
CAPERS NEARSHORE 0708   76     110/ 12/ 16 1020.2F
FRIPP NEARSHORE  0700   77     100/ 10/ 12 1019.7F


STATION/POSITION TIME  TEMP    WIND        PRES    WAVE   SWELL
                       AIR SEA DIR/SP/G            HT/PER HT/PER/DIR
                 (UTC) (F)     (DEG/KT/KT) (MB)    (FT/S) (FT/S/D)
5E ST. MARYS GA  0721      79                N/A     3/ 9
FRYING PAN BUOY  0750   77 75  130/ 10/ 12 1021.5S   4/ 8   3/110/ 8
BUOY 41025       0750   75 79  130/ 10/ 14 1022.0F   4/ 9   3/100/ 9
CAPE LOOKOUT NC  0800   74     140/  4/  4 1021.6F
BUOY 41002       0750   74 74   80/ 12/ 14 1020.6F   6/ 9   5/ 80/ 9
BUOY 41010       0720   77 79   90/ 12/ 14 1017.9F
ST AUGUSTINE FL  0800   76 79   80/ 10/ 10 1019.0F


$$


USA.gov is the U.S. government's official web portal to all federal, state and local government web resources and services.